Location: Isle of Man Observatory
(54.1776°N, 4.6264°W)
Time: 15:26:01
(UTC+02:00)

OTV 5 (USA 277) - Visible Passes

Search period start: 22 October 2019 00:00
Search period end: 31 October 2019 23:00
Orbit: 310 x 324 km, 54.5° (Epoch: 17 October)

Date Brightness Start Highest point End Pass type
(mag) Time Alt. Az. Time Alt. Az. Time Alt. Az.
30 Oct ? 20:07:04 10° SSW 20:07:33 13° SSW 20:07:33 13° SSW visible
31 Oct ? 18:49:17 10° SSE 18:50:07 11° SE 18:50:56 10° ESE visible
31 Oct ? 20:21:14 10° SW 20:21:50 15° SW 20:21:50 15° SW visible
